Location: Passau
(48.5830°N, 13.4830°E)
Time: 09:24:35
(UTC+01:00)

NOAA 19 - Pass Details

Date: 30 November 2021
Orbit: 841 x 860 km, 99.2° (Epoch: 26 January)

Event Time Altitude Azimuth Distance (km) Brightness Sun altitude
Rises 20:22:54 0° 219° (SW) 3,386 8.6 -40.4°
Reaches altitude 10° 20:26:38 10° 245° (WSW) 2,458 8.1 -41.0°
Maximum altitude 20:29:11 13° 273° (W) 2,234 8.0 -41.4°
Drops below altitude 10° 20:31:45 10° 302° (WNW) 2,469 8.2 -41.8°
Sets 20:35:33 0° 328° (NNW) 3,414 8.9 -42.4°
